Weather reports worldwide

Advertisment
Northolt, United Kingdom (3672): temperature & dewpoint: 17.02.2019 14:00:00 - 23.02.2019 14:00:00 (GMT)Northolt, United Kingdom (3672): temperature -20cm & temperature -100cm: 17.02.2019 14:00:00 - 23.02.2019 14:00:00 (GMT)Northolt, United Kingdom (3672): wind speed & gusts: 17.02.2019 14:00:00 - 23.02.2019 14:00:00 (GMT)Northolt, United Kingdom (3672): wind direction: 17.02.2019 14:00:00 - 23.02.2019 14:00:00 (GMT)Northolt, United Kingdom (3672): reduced air pressure: 17.02.2019 14:00:00 - 23.02.2019 14:00:00 (GMT)Northolt, United Kingdom (3672): visibility: 17.02.2019 14:00:00 - 23.02.2019 14:00:00 (GMT)Northolt, United Kingdom (3672): precipitation: 17.02.2019 14:00:00 - 23.02.2019 14:00:00 (GMT)
Date & Time tt [°C] td [°C] tt -20cm [°C] tt -100cm [°C] ff [km/h] ff [kn] fx [km/h] fx [kn] dd ppp [hPa] vv [km] rr [mm]
23.02.2019 14:00:00 17,0 7,9 - - 15 8 - - S 1032,7 10 -
23.02.2019 13:00:00 15,8 7,7 - - 15 8 - - S 1033,3 12 0,0
23.02.2019 12:00:00 13,9 8,1 - - 11 6 - - S 1033,8 9 0,0
23.02.2019 11:00:00 11,3 8,6 - - 11 6 - - SE 1034,0 5 0,0
23.02.2019 10:00:00 8,5 8,2 - - 5 3 - - SE 1034,2 2,8 0,0
23.02.2019 09:00:00 8,0 7,9 7,4 7,5 9 5 - - SE 1034,5 0,6 0,0
23.02.2019 08:00:00 7,6 7,4 - - 5 3 - - SE 1034,6 0,3 0,0
23.02.2019 07:00:00 7,1 6,9 - - 5 3 - - ESE 1033,9 0,3 0,0
23.02.2019 06:00:00 6,3 5,9 - - 4 2 - - ESE 1033,9 1,9 0,0
23.02.2019 05:00:00 7,3 6,9 - - 5 3 - - ESE 1033,8 2,0 0,0
23.02.2019 04:00:00 7,5 7,2 - - 11 6 - - ESE 1033,8 2,1 0,0
23.02.2019 03:00:00 7,7 7,3 - - 9 5 - - E 1034,2 2,4 0,0
23.02.2019 02:00:00 7,4 7,1 - - 11 6 - - ESE 1034,6 2,1 0,0
23.02.2019 01:00:00 6,0 5,3 - - 8 4 - - E 1034,7 3,5 0,0
23.02.2019 00:00:00 6,1 5,3 - - 9 5 - - E 1034,8 5 0,0
22.02.2019 23:00:00 6,3 5,0 - - 5 3 - - E 1035,1 6 0,0
22.02.2019 22:00:00 7,0 6,1 - - 8 4 - - ESE 1035,3 7 0,0
22.02.2019 21:00:00 6,3 3,6 - - 4 2 - - E 1035,2 10 0,0
22.02.2019 20:00:00 7,2 3,4 - - 2 1 - - SSE 1035,0 10 0,0
22.02.2019 19:00:00 11,0 3,8 - - 4 2 - - SE 1034,7 25 0,0
22.02.2019 18:00:00 12,5 4,0 - - 9 5 - - SE 1034,5 10 0,0
22.02.2019 17:00:00 14,3 4,8 - - 9 5 - - SSE 1034,4 10 0,0
22.02.2019 16:00:00 15,9 6,4 - - 11 6 - - SE 1034,4 10 0,0
22.02.2019 15:00:00 15,2 6,6 - - 11 6 - - SSE 1034,9 10 0,0
22.02.2019 14:00:00 14,7 7,2 - - 8 4 - - S 1035,5 10 0,0
22.02.2019 13:00:00 13,8 7,2 - - 4 2 - - SSE 1035,5 10 0,0
22.02.2019 12:00:00 10,9 6,8 - - 4 2 - - W 1035,8 10 0,0
22.02.2019 11:00:00 8,3 6,5 - - 4 2 - - ENE 1035,7 6 0,0
22.02.2019 10:00:00 6,3 6,1 - - 4 2 - - SSW 1036,1 3,0 0,0
22.02.2019 09:00:00 6,0 5,9 7,2 7,4 4 2 - - ESE 1035,7 0,8 0,0
22.02.2019 08:00:00 6,2 6,0 - - 5 3 - - SE 1034,9 0,1 0,0
22.02.2019 07:00:00 6,4 6,2 - - 2 1 - - SSE 1034,1 0,1 0,0
22.02.2019 06:00:00 6,4 6,2 - - 4 2 - - SW 1034,0 0,3 0,0
22.02.2019 05:00:00 6,5 6,3 - - 8 4 - - SW 1033,8 0,5 0,0
22.02.2019 04:00:00 6,8 6,5 - - 5 3 - - WSW 1033,2 2,3 0,0
22.02.2019 03:00:00 6,8 6,5 - - 8 4 - - WSW 1033,2 2,1 0,0
22.02.2019 02:00:00 6,9 6,6 - - 9 5 - - W 1032,8 2,1 0,0
22.02.2019 01:00:00 6,8 6,5 - - 11 6 - - WSW 1032,5 2,7 0,0
22.02.2019 00:00:00 6,6 6,2 - - 9 5 - - SW 1032,1 4,4 0,0
21.02.2019 23:00:00 7,2 6,5 - - 4 2 - - SSW 1031,7 6 0,0
21.02.2019 22:00:00 7,9 6,8 - - 5 3 - - SSW 1031,1 7 0,0
21.02.2019 21:00:00 8,7 7,2 - - 8 4 - - SW 1030,7 10 0,0
21.02.2019 20:00:00 9,6 7,6 - - 9 5 - - SW 1029,9 10 0,0
21.02.2019 19:00:00 10,7 8,0 - - 9 5 - - SW 1029,5 10 0,0
21.02.2019 18:00:00 12,2 8,1 - - 8 4 - - W 1028,6 10 0,0
21.02.2019 17:00:00 14,0 7,8 - - 11 6 - - WSW 1027,8 10 0,0
21.02.2019 16:00:00 15,1 7,5 - - 13 7 - - SW 1027,1 10 0,0
21.02.2019 15:00:00 15,3 8,2 - - 13 7 - - WSW 1026,8 10 0,0
21.02.2019 14:00:00 14,3 7,8 - - 18 10 - - WSW 1026,5 10 0,0
21.02.2019 13:00:00 13,8 8,0 - - 21 11 - - W 1026,5 10 0,0
21.02.2019 12:00:00 11,5 7,6 - - 21 11 - - WSW 1026,8 10 0,0
21.02.2019 11:00:00 11,1 8,1 - - 21 11 - - W 1026,4 10 0,0
21.02.2019 10:00:00 10,4 8,2 - - 18 10 - - W 1025,6 10 0,0
21.02.2019 09:00:00 9,7 7,9 6,7 7,2 21 11 - - WSW 1025,3 10 0,0
21.02.2019 08:00:00 9,4 7,8 - - 15 8 - - WSW 1024,7 10 0,0
21.02.2019 07:00:00 8,9 7,4 - - 8 4 - - SW 1023,8 10 0,0
21.02.2019 06:00:00 7,9 6,4 - - 8 4 - - SW 1023,4 10 0,0
21.02.2019 05:00:00 7,5 6,0 - - 5 3 - - SSW 1023,0 16 0,0
21.02.2019 04:00:00 7,8 6,2 - - 9 5 - - S 1022,5 10 0,0
21.02.2019 03:00:00 7,2 5,9 - - 8 4 - - SSW 1023,2 14 0,0
21.02.2019 02:00:00 5,5 4,8 - - 4 2 - - SE 1023,4 13 0,0
21.02.2019 01:00:00 5,3 3,8 - - 2 1 - - SSW 1023,3 10 0,0
21.02.2019 00:00:00 6,8 5,3 - - 8 4 - - SSW 1022,7 10 0,0
20.02.2019 23:00:00 7,4 5,9 - - 9 5 - - SW 1022,4 10 0,0
20.02.2019 22:00:00 7,1 5,6 - - 9 5 - - SW 1021,9 10 0,0
20.02.2019 21:00:00 7,7 5,7 - - 9 5 - - SSW 1021,9 20 0,0
20.02.2019 20:00:00 8,4 5,6 - - 11 6 - - SSW 1021,7 25 0,0
20.02.2019 19:00:00 9,0 5,7 - - 16 9 - - SW 1021,1 30 0,0
20.02.2019 18:00:00 10,0 5,5 - - 15 8 - - SW 1020,6 35 0,0
20.02.2019 17:00:00 11,2 5,4 - - 21 11 - - SW 1020,4 40 0,0
20.02.2019 16:00:00 12,0 4,7 - - 21 11 - - SW 1020,1 40 0,0
20.02.2019 15:00:00 12,5 4,8 - - 24 13 - - WSW 1020,0 40 -
20.02.2019 14:00:00 12,9 5,9 - - 22 12 - - WSW 1020,0 30 -
20.02.2019 13:00:00 12,3 5,7 - - 26 14 - - SW 1020,2 10 0,0
20.02.2019 12:00:00 11,4 6,7 - - 22 12 - - SW 1020,3 10 0,0
20.02.2019 11:00:00 11,4 6,8 - - 24 13 - - SW 1020,3 10 0,0
20.02.2019 10:00:00 9,5 5,9 - - 21 11 - - SW 1019,8 10 0,0
20.02.2019 09:00:00 9,0 5,9 6,5 7,2 16 9 - - SW 1019,4 10 0,0
20.02.2019 08:00:00 7,9 5,9 - - 15 8 - - SSW 1019,0 10 0,0
20.02.2019 07:00:00 7,4 5,8 - - 13 7 - - SSW 1018,4 10 0,0
20.02.2019 06:00:00 6,9 5,5 - - 11 6 - - SSW 1018,2 13 0,0
20.02.2019 05:00:00 6,9 5,5 - - 13 7 - - SSW 1018,2 14 0,0
20.02.2019 04:00:00 7,0 5,3 - - 11 6 - - SSW 1018,2 10 0,0
20.02.2019 03:00:00 6,8 4,9 - - 11 6 - - SSW 1018,5 18 0,0
20.02.2019 02:00:00 6,6 4,6 - - 13 7 - - SSW 1018,9 24 0,0
20.02.2019 01:00:00 6,9 4,9 - - 11 6 - - SSW 1018,9 24 0,0
20.02.2019 00:00:00 6,7 4,9 - - 13 7 - - SSW 1018,9 10 0,0
19.02.2019 23:00:00 7,3 5,0 - - 13 7 - - SSW 1019,1 25 0,0
19.02.2019 22:00:00 7,4 5,2 - - 13 7 - - SW 1019,1 25 0,0
19.02.2019 21:00:00 7,5 5,0 - - 15 8 - - SW 1019,0 10 0,0
19.02.2019 20:00:00 7,5 4,8 - - 15 8 - - SW 1019,1 25 0,0
19.02.2019 19:00:00 8,4 4,4 - - 16 9 - - SW 1018,9 28 0,0
19.02.2019 18:00:00 8,2 3,6 - - 9 5 - - SW 1018,5 10 0,0
19.02.2019 17:00:00 9,5 3,1 - - 15 8 - - WSW 1018,5 30 0,0
19.02.2019 16:00:00 10,4 4,0 - - 18 10 - - WSW 1018,5 10 0,0
19.02.2019 15:00:00 10,6 3,3 - - 18 10 - - W 1018,8 10 0,0
19.02.2019 14:00:00 11,9 3,5 - - 22 12 - - W 1019,0 10 0,0
19.02.2019 13:00:00 10,9 3,1 - - 24 13 - - W 1019,3 10 0,0
19.02.2019 12:00:00 9,5 4,1 - - 21 11 - - W 1019,7 25 0,0
19.02.2019 11:00:00 8,9 4,8 - - 16 9 - - WSW 1019,8 10 0,0
19.02.2019 10:00:00 7,2 4,6 - - 15 8 - - WSW 1019,8 10 0,0
19.02.2019 09:00:00 5,2 4,2 6,5 7,2 8 4 - - WSW 1019,5 10 0,0
19.02.2019 08:00:00 3,5 2,8 - - 13 7 - - WSW 1019,0 10 0,0
19.02.2019 07:00:00 2,9 2,4 - - 13 7 - - WSW 1018,2 10 0,0
19.02.2019 06:00:00 2,5 1,9 - - 5 3 - - WSW 1017,9 17 0,0
19.02.2019 05:00:00 2,6 1,9 - - 8 4 - - WSW 1017,8 10 0,0
19.02.2019 04:00:00 2,8 2,0 - - 8 4 - - W 1017,6 18 0,0
19.02.2019 03:00:00 3,4 2,4 - - 9 5 - - WSW 1017,3 10 0,0
19.02.2019 02:00:00 3,7 2,7 - - 11 6 - - WSW 1017,2 20 0,0
19.02.2019 01:00:00 2,4 1,9 - - 9 5 - - W 1017,0 20 0,0
19.02.2019 00:00:00 2,6 1,7 - - 4 2 - - NNW 1016,7 10 0,0
18.02.2019 23:00:00 3,9 3,2 - - 9 5 - - SW 1016,4 10 0,0
18.02.2019 22:00:00 4,2 3,4 - - 9 5 - - SW 1016,5 10 0,0
18.02.2019 21:00:00 4,8 3,8 - - 9 5 - - WSW 1016,1 10 0,0
18.02.2019 20:00:00 5,5 4,4 - - 11 6 - - SW 1015,9 10 0,0
18.02.2019 19:00:00 6,7 5,0 - - 11 6 - - SW 1015,2 10 0,0
18.02.2019 18:00:00 7,9 5,4 - - 13 7 - - WSW 1014,6 10 0,0
18.02.2019 17:00:00 8,7 6,5 - - 15 8 - - SW 1014,0 10 0,0
18.02.2019 16:00:00 9,0 7,0 - - 16 9 - - SSW 1014,1 10 0,0
18.02.2019 15:00:00 8,8 7,4 - - 15 8 - - SSW 1014,2 10 0,0
18.02.2019 14:00:00 8,5 7,4 - - 13 7 - - SSW 1014,4 10 0,4
18.02.2019 13:00:00 8,3 6,8 - - 15 8 - - SW 1014,9 10 0,6
18.02.2019 12:00:00 8,7 7,5 - - 13 7 - - SW 1015,2 10 0,8
18.02.2019 11:00:00 9,1 7,6 - - 15 8 - - SW 1015,3 8 1,0
18.02.2019 10:00:00 9,7 8,2 - - 15 8 - - SSW 1015,4 10 0,0
18.02.2019 09:00:00 9,1 7,5 6,5 7,2 15 8 - - SSW 1015,3 10 0,0
18.02.2019 08:00:00 8,4 7,3 - - 8 4 - - S 1015,4 10 0,0
18.02.2019 07:00:00 7,9 6,9 - - 9 5 - - S 1014,9 10 0,0
18.02.2019 06:00:00 7,9 7,3 - - 8 4 - - SSW 1015,0 10 0,0
18.02.2019 05:00:00 6,4 5,1 - - 4 2 - - ESE 1015,1 10 0,0
18.02.2019 04:00:00 7,6 6,7 - - 5 3 - - SSW 1015,3 10 0,0
18.02.2019 03:00:00 7,3 6,3 - - 8 4 - - SSW 1015,5 10 0,0
18.02.2019 02:00:00 7,9 6,4 - - 8 4 - - S 1015,9 15 0,0
18.02.2019 01:00:00 9,1 7,3 - - 11 6 - - SW 1016,2 16 0,0
18.02.2019 00:00:00 9,7 7,7 - - 15 8 - - SW 1016,0 10 0,0
17.02.2019 23:00:00 10,0 8,0 - - 11 6 - - SSW 1015,9 15 0,0
17.02.2019 22:00:00 9,9 8,1 - - 11 6 - - SSW 1015,7 10 0,0
17.02.2019 21:00:00 9,0 7,3 - - 9 5 - - SW 1015,7 10 0,0
17.02.2019 20:00:00 9,3 7,4 - - 9 5 - - SSW 1015,6 10 0,0
17.02.2019 19:00:00 10,1 7,5 - - 16 9 - - SSW 1015,7 10 0,0
17.02.2019 18:00:00 10,6 7,4 - - 21 11 - - SW 1015,2 10 0,0
17.02.2019 17:00:00 11,7 8,0 - - 21 11 - - SW 1014,4 10 0,0
17.02.2019 16:00:00 13,2 8,6 - - 26 14 46 25 SW 1014,3 25 0,0
17.02.2019 15:00:00 14,8 8,4 - - 21 11 - - WSW 1013,7 10 0,0
17.02.2019 14:00:00 15,3 7,8 - - 18 10 - - SSW 1014,0 10 0,0

tt = temperature
td = dewpoint
tt -20cm = temperature -20cm
tt -100cm = temperature -100cm
ff = wind speed
fx = gusts
dd = wind direction
ppp = reduced air pressure
vv = visibility
rr = precipitation

Next stations